{"data":{"norad_id":48212,"intl_designator":"2021-031C","name":"ONEWEB-0179","alt_names":[],"object_type":"PAYLOAD","status":"ACTIVE","operator":null,"country":"UK","launch_date":"2021-04-25","launch_site_code":"VOSTO","launch_vehicle":null,"mission":null,"orbit_class":"UNKNOWN","rcs_meters":null,"size_class":null,"mass_kg":null,"dimensions":null,"purposes":["comms"],"wikipedia_slug":null,"has_3d_model":false,"image_url":null,"decayed_at":null,"tle_current":{"epoch":"2026-09-19T17:35:07.234368Z","epoch_age_seconds":84610,"freshness":"FRESH","line1":"1 48212U 21031C   26262.73272262  .00001287  00000+0  11758-3 0  9995","line2":"2 48212  87.8936 263.6365 0348071 301.3243  55.4325 14.57918005262655","mean_motion":14.57918005,"eccentricity":0.0348071,"inclination_deg":87.8936,"raan_deg":263.6365,"arg_perigee_deg":301.3243,"mean_anomaly_deg":55.4325,"bstar":0.00011758,"rev_number":26265,"period_min":98.770986781249,"perigee_km":453.53845982514,"apogee_km":946.27066060631,"semimajor_km":7078.0415602157,"source":"CELESTRAK","updated_at":"2026-09-20T09:00:44.592310Z"}}}